period_start,C,m1,H,J0,J1,J2,J3,J4,J5,JA,JB,JC,JD,JJ,JK,JN,#
2017-02-17 00:02:24,0.44,7.29,0.00,20.52,24.35,27.86,14.67,51.38,1016.61,2037.20,1638.83,1697.79,1918.79,599.79,600.88,16.68,0000 0000 0000 0000 000000
2017-02-17 00:07:25,0.44,7.31,0.00,20.52,24.32,27.87,14.81,51.38,1016.62,2037.38,1635.74,1695.41,1916.02,600.36,601.48,16.73,0000 0000 0000 0000 000000
2017-02-17 00:12:26,0.46,7.33,0.00,20.52,24.31,27.81,14.75,51.38,1016.62,2037.54,1632.65,1692.96,1913.18,599.94,601.07,16.78,0000 0000 0000 0000 000000
2017-02-17 00:17:28,0.46,7.36,0.00,20.52,24.30,27.80,14.71,51.74,1016.41,2037.63,1629.35,1690.38,1910.21,599.88,600.81,16.83,0000 0000 0000 0000 000000
2017-02-17 00:22:29,0.47,7.38,0.00,20.51,24.28,27.77,14.64,51.63,1016.30,2037.79,1626.06,1687.88,1907.20,599.71,600.45,16.88,0000 0000 0000 0000 000000
2017-02-17 00:27:31,0.42,7.40,0.00,20.49,24.27,27.84,14.71,51.63,1016.41,2037.92,1622.93,1685.48,1904.43,599.62,600.67,16.93,0000 0000 0000 0000 000000
2017-02-17 00:32:32,0.44,7.42,0.00,20.48,24.26,27.79,14.71,51.74,1016.59,2037.97,1619.77,1683.09,1901.63,599.91,601.02,16.98,0000 0000 0000 0000 000000
2017-02-17 00:37:33,0.43,7.45,0.00,20.48,24.25,27.76,14.74,51.36,1016.62,2037.96,1616.64,1680.59,1898.75,600.15,601.43,17.03,0000 0000 0000 0000 000000
2017-02-17 00:42:34,0.44,7.47,0.00,20.49,24.23,27.72,14.77,51.45,1016.62,2037.98,1613.52,1678.18,1895.98,600.52,601.66,17.08,0000 0000 0000 0000 000000
2017-02-17 00:47:35,0.50,7.49,0.00,20.28,24.21,27.73,14.71,51.79,1016.62,2037.99,1610.12,1675.45,1892.84,600.08,601.71,17.13,0000 0000 0000 0000 000000
2017-02-17 00:52:37,0.45,7.52,0.00,20.20,24.18,27.83,14.73,51.84,1016.64,2037.99,1606.78,1672.81,1889.73,599.78,601.49,17.18,0000 0000 0000 0000 000000
2017-02-17 00:57:38,0.44,7.54,0.00,20.17,24.13,27.71,14.75,51.84,1016.62,2037.99,1603.61,1670.36,1886.93,599.88,601.71,17.23,0000 0000 0000 0000 000000
2017-02-17 01:02:39,0.44,7.56,0.00,20.15,24.09,27.60,14.74,51.79,1016.62,2038.01,1600.43,1667.98,1884.14,600.00,601.83,17.28,0000 0000 0000 0000 000000
2017-02-17 01:07:41,0.45,7.58,0.00,20.14,24.04,27.56,14.72,51.69,1016.62,2038.18,1597.44,1665.53,1881.28,600.45,602.25,17.33,0000 0000 0000 0000 000000
2017-02-17 01:12:42,0.53,7.61,0.00,20.13,24.00,27.52,14.72,51.75,1016.62,2038.86,1594.35,1663.09,1878.47,599.82,601.67,17.38,0000 0000 0000 0000 000000
2017-02-17 01:17:43,0.46,7.63,0.00,20.14,23.96,27.45,14.72,51.77,1016.60,2038.97,1591.17,1660.61,1875.57,599.90,601.73,17.43,0000 0000 0000 0000 000000
2017-02-17 01:22:45,0.53,7.66,0.00,20.15,23.93,27.46,14.67,52.15,1016.21,2038.99,1587.54,1657.71,1872.34,599.92,601.51,17.48,0000 0000 0000 0000 000000
2017-02-17 01:27:46,0.47,7.68,0.00,20.15,23.91,27.42,14.80,51.98,1016.28,2038.99,1584.18,1655.05,1869.28,600.31,601.96,17.53,0000 0000 0000 0000 000000
2017-02-17 01:32:48,0.76,7.72,0.00,20.13,23.88,27.38,14.69,52.10,1016.14,2039.03,1579.66,1651.36,1865.15,600.16,601.75,17.58,0000 0000 0000 0000 000000
2017-02-17 01:37:49,0.53,7.75,0.00,20.13,23.86,27.39,14.70,52.00,1016.18,2039.08,1575.60,1647.82,1861.10,599.59,601.20,17.63,0000 0000 0000 0000 000000
2017-02-17 01:42:50,0.49,7.77,0.00,20.11,23.83,27.35,14.67,52.04,1016.22,2039.18,1572.32,1645.17,1858.05,600.02,601.75,17.68,0000 0000 0000 0000 000000
2017-02-17 01:47:52,0.56,7.80,0.00,20.10,23.80,27.33,14.72,52.16,1016.11,2039.52,1568.91,1642.43,1855.01,599.85,601.40,17.73,0000 0000 0000 0000 000000
2017-02-17 01:52:53,0.61,7.83,0.00,20.09,23.78,27.36,14.77,52.15,1016.13,2039.88,1565.12,1639.27,1851.55,600.47,602.15,17.78,0000 0000 0000 0000 000000
2017-02-17 01:57:54,0.53,7.86,0.20,20.10,23.76,27.35,14.73,52.30,1016.08,2039.97,1561.58,1636.45,1848.22,599.99,601.63,17.83,0000 0000 0000 0000 000000
2017-02-17 02:02:55,0.50,7.88,1.00,20.10,23.74,27.37,14.74,52.27,1016.05,2039.99,1558.17,1633.66,1845.04,600.03,601.61,17.88,0000 0000 0000 0000 000000
2017-02-17 02:07:56,0.57,7.91,1.00,20.10,23.72,27.35,14.78,52.33,1016.00,2039.99,1554.55,1630.69,1841.65,599.95,601.40,17.93,0000 0000 0000 0000 000000
2017-02-17 02:12:58,0.50,7.94,1.00,20.10,23.70,27.37,14.75,52.19,1016.12,2039.99,1551.02,1627.80,1838.32,599.89,601.58,17.98,0000 0000 0000 0000 000000
2017-02-17 02:17:59,0.46,7.96,1.00,20.10,23.69,27.36,14.75,52.30,1016.14,2039.99,1547.91,1625.38,1835.48,600.08,601.68,18.03,0000 0000 0000 0000 000000
2017-02-17 02:23:00,0.46,7.99,1.00,20.09,23.67,27.36,14.76,52.14,1016.15,2039.99,1544.74,1622.94,1832.61,600.12,601.82,18.08,0000 0000 0000 0000 000000
2017-02-17 02:28:01,0.45,8.01,0.77,20.10,23.66,27.40,14.75,52.03,1016.13,2039.99,1541.64,1620.48,1829.83,600.19,601.76,18.13,0000 0000 0000 0000 000000
2017-02-17 02:33:02,0.46,8.03,0.00,20.09,23.65,27.38,14.75,52.27,1016.11,2040.01,1538.60,1618.09,1827.06,599.91,601.59,18.18,0000 0000 0000 0000 000000
2017-02-17 02:38:04,0.45,8.06,0.00,20.09,23.64,27.39,14.71,52.14,1016.09,2040.02,1535.59,1615.63,1824.27,599.74,601.43,18.23,0000 0000 0000 0000 000000
2017-02-17 02:43:05,0.50,8.08,0.00,20.08,23.62,27.40,14.69,52.63,1015.76,2040.03,1532.53,1613.07,1821.31,600.04,601.48,18.28,0000 0000 0000 0000 000000
2017-02-17 02:48:07,0.56,8.11,0.00,20.08,23.62,27.37,14.72,52.63,1015.79,2040.07,1528.95,1610.15,1817.95,599.67,601.12,18.33,0000 0000 0000 0000 000000
2017-02-17 02:53:08,0.61,8.14,0.00,20.07,23.60,27.41,14.67,52.09,1016.11,2040.06,1525.07,1606.68,1814.09,599.88,601.61,18.38,0000 0000 0000 0000 000000
2017-02-17 02:58:09,0.49,8.16,0.27,20.07,23.60,27.42,14.73,52.13,1016.07,2040.19,1522.02,1604.24,1811.18,600.17,601.71,18.43,0000 0000 0000 0000 000000
2017-02-17 03:03:11,0.49,8.19,1.00,20.09,23.59,27.43,14.72,52.33,1015.91,2040.36,1518.86,1601.67,1808.33,600.04,601.61,18.48,0000 0000 0000 0000 000000
2017-02-17 03:08:12,0.61,8.22,1.00,20.08,23.57,27.40,14.80,52.60,1015.76,2040.55,1515.22,1598.76,1804.98,600.44,601.89,18.53,0000 0000 0000 0000 000000
2017-02-17 03:13:13,0.55,8.25,1.00,20.07,23.57,27.42,14.76,52.61,1015.82,2040.76,1511.79,1596.06,1801.79,599.98,601.53,18.59,0000 0000 0000 0000 000000
2017-02-17 03:18:15,0.51,8.27,1.00,20.08,23.56,27.45,14.79,52.46,1015.69,2040.83,1508.41,1593.40,1798.64,600.18,601.62,18.64,0000 0000 0000 0000 000000
2017-02-17 03:23:16,0.52,8.30,1.00,20.08,23.55,27.41,14.81,52.50,1015.66,2040.95,1505.20,1590.75,1795.66,600.03,601.49,18.69,0000 0000 0000 0000 000000
2017-02-17 03:28:17,0.50,8.33,1.00,20.06,23.55,27.43,14.80,52.67,1015.64,2040.95,1501.92,1588.12,1792.63,600.42,601.62,18.74,0000 0000 0000 0000 000000
2017-02-17 03:33:18,0.55,8.35,1.00,20.06,23.54,27.38,14.75,52.56,1015.58,2040.97,1498.51,1585.38,1789.50,600.12,601.46,18.79,0000 0000 0000 0000 000000
2017-02-17 03:38:20,0.49,8.38,1.00,20.04,23.53,27.38,14.72,52.53,1015.60,2040.96,1495.33,1582.75,1786.51,600.07,601.52,18.84,0000 0000 0000 0000 000000
2017-02-17 03:43:21,0.55,8.40,1.00,20.02,23.52,27.38,14.78,52.57,1015.45,2040.97,1491.98,1579.86,1783.36,600.23,601.72,18.89,0000 0000 0000 0000 000000
2017-02-17 03:48:22,0.50,8.43,1.00,20.02,23.52,27.36,14.75,52.44,1015.22,2040.98,1488.73,1577.28,1780.25,600.00,601.17,18.94,0000 0000 0000 0000 000000
2017-02-17 03:53:23,0.48,8.45,1.00,20.01,23.50,27.33,14.75,52.39,1015.16,2040.98,1485.67,1574.86,1777.41,599.98,601.24,18.99,0000 0000 0000 0000 000000
2017-02-17 03:58:25,0.45,8.48,1.00,20.00,23.50,27.36,14.71,52.33,1015.15,2040.99,1482.77,1572.48,1774.65,600.21,601.48,19.04,0000 0000 0000 0000 000000
2017-02-17 04:03:26,0.39,8.50,1.00,19.98,23.50,27.35,14.77,52.18,1015.15,2040.99,1480.22,1570.47,1772.29,599.94,601.37,19.09,0000 0000 0000 0000 000000
2017-02-17 04:08:27,0.41,8.52,1.00,19.98,23.48,27.30,14.76,52.20,1015.15,2040.99,1477.64,1568.48,1770.01,599.99,601.39,19.14,0000 0000 0000 0000 000000
2017-02-17 04:13:28,0.43,8.54,1.00,19.98,23.47,27.31,14.76,52.30,1015.13,2040.99,1474.91,1566.26,1767.51,600.12,601.41,19.19,0000 0000 0000 0000 000000
2017-02-17 04:18:30,0.42,8.56,1.00,19.98,23.47,27.36,14.71,52.36,1015.15,2040.99,1472.31,1564.18,1765.04,600.01,601.25,19.24,0000 0000 0000 0000 000000
2017-02-17 04:23:31,0.43,8.58,1.00,20.00,23.47,27.35,14.72,52.35,1015.15,2040.99,1469.76,1562.02,1762.49,600.08,601.40,19.29,0000 0000 0000 0000 000000
2017-02-17 04:28:32,0.42,8.61,0.67,20.01,23.47,27.35,14.71,52.07,1015.16,2040.99,1467.08,1559.94,1760.13,600.18,601.40,19.34,0000 0000 0000 0000 000000
2017-02-17 04:33:33,0.39,8.63,0.00,20.02,23.46,27.38,14.74,51.98,1015.16,2040.99,1464.52,1557.96,1757.81,599.55,600.78,19.39,0000 0000 0000 0000 000000
2017-02-17 04:38:34,0.43,8.64,0.00,20.05,23.46,27.40,14.72,52.41,1014.97,2040.99,1461.92,1555.97,1755.45,599.93,600.99,19.44,0000 0000 0000 0000 000000
2017-02-17 04:43:36,0.42,8.67,0.00,20.08,23.47,27.40,14.69,52.26,1015.15,2040.99,1459.25,1553.79,1752.96,599.90,601.08,19.49,0000 0000 0000 0000 000000
2017-02-17 04:48:37,0.44,8.69,0.00,20.09,23.47,27.39,14.73,52.51,1015.15,2040.99,1456.55,1551.51,1750.40,599.80,600.93,19.54,0000 0000 0000 0000 000000
2017-02-17 04:53:38,0.53,8.72,0.00,20.11,23.47,27.46,14.72,52.65,1015.13,2040.99,1453.47,1548.79,1747.50,600.50,601.60,19.59,0000 0000 0000 0000 000000
2017-02-17 04:58:40,0.43,8.74,0.00,20.11,23.47,27.46,14.73,52.38,1015.16,2040.98,1450.76,1546.59,1744.94,600.07,601.21,19.64,0000 0000 0000 0000 000000
2017-02-17 05:03:41,0.43,8.76,0.00,20.14,23.47,27.49,14.76,52.38,1015.15,2040.99,1448.12,1544.53,1742.49,600.51,601.56,19.69,0000 0000 0000 0000 000000
2017-02-17 05:08:42,0.42,8.78,0.00,20.16,23.49,27.51,14.76,52.26,1015.15,2040.99,1445.44,1542.43,1740.04,599.65,600.51,19.74,0000 0000 0000 0000 000000
2017-02-17 05:13:43,0.43,8.80,0.00,20.16,23.50,27.51,14.69,52.16,1015.33,2040.98,1442.77,1540.32,1737.57,600.12,601.22,19.79,0000 0000 0000 0000 000000
2017-02-17 05:18:45,0.47,8.83,0.00,20.18,23.50,27.50,14.77,52.54,1015.18,2040.98,1440.01,1538.10,1734.99,599.75,600.67,19.84,0000 0000 0000 0000 000000
2017-02-17 05:23:46,0.55,8.85,0.00,20.17,23.50,27.51,14.76,52.62,1015.17,2040.97,1436.77,1535.48,1731.88,600.03,601.17,19.89,0000 0000 0000 0000 000000
2017-02-17 05:28:47,0.50,8.88,0.00,20.19,23.52,27.58,14.79,52.49,1015.17,2040.97,1433.70,1533.01,1728.93,600.02,600.93,19.94,0000 0000 0000 0000 000000
2017-02-17 05:33:49,0.46,8.90,0.00,20.20,23.52,27.57,14.75,52.42,1015.19,2040.94,1430.89,1530.66,1726.44,599.82,600.69,19.99,0000 0000 0000 0000 000000
2017-02-17 05:38:50,0.39,8.93,0.00,20.20,23.53,27.57,14.75,52.22,1015.48,2040.86,1428.34,1528.64,1724.17,600.26,601.27,20.04,0000 0000 0000 0000 000000
2017-02-17 05:43:51,0.41,8.95,0.00,20.20,23.54,27.58,14.73,52.23,1015.35,2040.75,1425.87,1526.64,1721.82,600.09,601.05,20.09,0000 0000 0000 0000 000000
2017-02-17 05:48:53,0.40,8.97,0.00,20.22,23.55,27.60,14.71,52.45,1015.18,2040.54,1423.33,1524.56,1719.43,599.71,600.65,20.14,0000 0000 0000 0000 000000
2017-02-17 05:53:54,0.36,8.99,0.00,20.23,23.55,27.58,14.73,52.25,1015.17,2040.23,1420.85,1522.57,1717.14,600.18,600.98,20.19,0000 0000 0000 0000 000000
2017-02-17 05:58:55,0.37,9.00,0.00,20.25,23.57,27.61,14.77,52.42,1015.16,2040.13,1418.57,1520.75,1715.03,600.10,600.94,20.24,0000 0000 0000 0000 000000
2017-02-17 06:03:57,0.39,9.02,0.00,20.29,23.57,27.64,14.72,52.48,1015.17,2040.07,1416.23,1518.90,1712.89,599.75,600.52,20.29,0000 0000 0000 0000 000000
2017-02-17 06:08:58,0.38,9.04,0.00,20.29,23.58,27.64,14.71,52.15,1015.29,2040.07,1413.91,1517.05,1710.78,599.93,600.59,20.34,0000 0000 0000 0000 000000
2017-02-17 06:13:59,0.37,9.06,0.00,20.29,23.60,27.68,14.71,52.19,1015.54,2040.04,1411.55,1515.23,1708.63,599.91,600.78,20.39,0000 0000 0000 0000 000000
2017-02-17 06:19:01,0.38,9.08,0.00,20.33,23.61,27.71,14.71,52.39,1015.41,2040.02,1409.27,1513.40,1706.53,600.05,600.82,20.44,0000 0000 0000 0000 000000
2017-02-17 06:24:02,0.38,9.10,0.00,20.34,23.62,27.71,14.74,52.53,1015.21,2040.00,1407.08,1511.61,1704.43,599.77,600.29,20.49,0000 0000 0000 0000 000000
2017-02-17 06:29:03,0.42,9.12,0.00,20.35,23.63,27.73,14.70,52.73,1015.14,2040.00,1404.61,1509.68,1702.17,599.92,600.50,20.54,0000 0000 0000 0000 000000
2017-02-17 06:34:04,0.44,9.14,0.00,20.38,23.65,27.75,14.77,52.51,1015.05,2040.00,1402.02,1507.67,1699.82,600.24,600.67,20.59,0000 0000 0000 0000 000000
2017-02-17 06:39:05,0.39,9.16,0.00,20.38,23.66,27.77,14.73,52.23,1015.15,2040.00,1399.54,1505.77,1697.66,600.09,600.80,20.64,0000 0000 0000 0000 000000
2017-02-17 06:44:07,0.40,9.19,0.00,20.40,23.67,27.80,14.67,52.32,1015.15,2039.99,1397.13,1503.94,1695.45,599.78,600.32,20.69,0000 0000 0000 0000 000000
2017-02-17 06:49:08,0.44,9.21,0.00,20.41,23.69,27.79,14.63,52.23,1015.13,2039.99,1394.73,1501.93,1693.13,599.94,600.32,20.74,0000 0000 0000 0000 000000
2017-02-17 06:54:09,0.45,9.23,0.00,20.43,23.70,27.81,14.81,52.28,1015.13,2039.99,1392.14,1499.79,1690.72,599.96,600.28,20.79,0000 0000 0000 0000 000000
2017-02-17 06:59:10,0.41,9.25,0.00,20.42,23.72,27.85,14.75,52.23,1015.14,2039.99,1389.64,1497.79,1688.43,599.83,600.23,20.84,0000 0000 0000 0000 000000
2017-02-17 07:04:11,0.49,9.27,0.00,20.45,23.72,27.84,14.67,52.30,1015.14,2039.98,1386.91,1495.65,1685.90,599.90,600.04,20.89,0000 0000 0000 0000 000000
2017-02-17 07:09:13,0.45,9.30,0.00,20.46,23.73,27.84,14.68,52.36,1015.15,2039.97,1384.29,1493.43,1683.34,600.04,600.31,20.94,0000 0000 0000 0000 000000
2017-02-17 07:14:14,0.40,9.32,0.00,20.46,23.75,27.85,14.74,52.32,1015.12,2039.93,1381.89,1491.49,1681.09,599.97,600.26,20.99,0000 0000 0000 0000 000000
2017-02-17 07:19:15,0.41,9.34,0.00,20.47,23.76,27.87,14.74,52.49,1014.83,2039.83,1379.44,1489.51,1678.78,600.28,600.39,21.04,0000 0000 0000 0000 000000
2017-02-17 07:24:16,0.45,9.36,0.00,20.48,23.77,27.88,14.74,52.27,1014.87,2039.68,1376.88,1487.41,1676.40,600.40,600.48,21.09,0000 0000 0000 0000 000000
2017-02-17 07:29:17,0.36,9.38,0.00,20.47,23.78,27.89,14.68,52.16,1014.73,2039.40,1374.46,1485.34,1674.14,599.70,599.75,21.14,0000 0000 0000 0000 000000
2017-02-17 07:34:19,0.42,9.40,0.00,20.47,23.80,27.92,14.71,52.31,1014.72,2039.25,1372.10,1483.52,1672.00,599.88,599.95,21.19,0000 0000 0000 0000 000000
2017-02-17 07:39:20,0.40,9.42,0.00,20.48,23.80,27.92,14.66,52.27,1014.83,2039.25,1369.76,1481.63,1669.86,599.83,599.97,21.24,0000 0000 0000 0000 000000
2017-02-17 07:44:21,0.40,9.44,0.00,20.49,23.82,27.93,14.76,52.45,1014.75,2039.14,1367.34,1479.66,1667.58,600.01,599.92,21.29,0000 0000 0000 0000 000000
2017-02-17 07:49:22,0.46,9.46,0.00,20.51,23.82,27.94,14.75,52.55,1014.70,2039.04,1364.71,1477.52,1665.19,600.14,600.04,21.34,0000 0000 0000 0000 000000
2017-02-17 07:54:24,0.45,9.49,0.00,20.51,23.84,27.96,14.77,52.47,1015.09,2039.04,1362.17,1475.54,1662.92,600.21,600.40,21.39,0000 0000 0000 0000 000000
2017-02-17 07:59:25,0.38,9.51,0.00,20.51,23.85,27.95,14.74,52.42,1015.12,2039.05,1360.02,1473.77,1660.92,600.22,600.40,21.44,0000 0000 0000 0000 000000
2017-02-17 08:04:26,0.37,9.53,0.00,20.51,23.86,27.94,14.80,52.27,1015.14,2039.01,1357.77,1472.01,1658.85,600.02,600.35,21.49,0000 0000 0000 0000 000000
2017-02-17 08:09:27,0.37,9.54,0.00,20.51,23.87,27.96,14.79,52.31,1014.96,2039.00,1355.57,1470.42,1656.82,600.28,600.31,21.54,0000 0000 0000 0000 000000
2017-02-17 08:14:29,0.38,9.56,0.00,20.51,23.87,27.99,14.66,52.39,1014.74,2039.00,1353.37,1468.72,1654.89,599.80,599.71,21.59,0000 0000 0000 0000 000000
2017-02-17 08:19:30,0.40,9.58,0.00,20.52,23.89,27.96,14.66,52.37,1014.70,2038.99,1351.17,1466.97,1652.81,599.79,599.75,21.64,0000 0000 0000 0000 000000
2017-02-17 08:24:31,0.40,9.60,0.00,20.53,23.90,27.98,14.68,52.42,1014.66,2038.99,1348.87,1465.21,1650.78,600.13,600.04,21.69,0000 0000 0000 0000 000000
2017-02-17 08:29:32,0.46,9.63,0.00,20.57,23.91,28.01,14.74,52.69,1014.32,2038.99,1346.31,1463.26,1648.47,599.92,599.60,21.74,0000 0000 0000 0000 000000
2017-02-17 08:34:34,0.45,9.65,0.00,20.57,23.92,28.00,14.71,52.59,1014.19,2038.99,1343.76,1461.21,1646.15,600.07,599.57,21.79,0000 0000 0000 0000 000000
2017-02-17 08:39:35,0.40,9.67,0.00,20.56,23.92,28.02,14.69,52.65,1014.53,2038.99,1341.55,1459.42,1644.08,599.84,599.69,21.84,0000 0000 0000 0000 000000
2017-02-17 08:44:37,0.41,9.69,0.00,20.57,23.93,27.98,14.70,52.68,1014.35,2038.99,1339.25,1457.62,1642.01,600.07,599.67,21.89,0000 0000 0000 0000 000000
2017-02-17 08:49:38,0.43,9.71,0.00,20.55,23.94,28.02,14.72,52.65,1014.20,2038.99,1336.93,1455.78,1639.81,600.21,599.83,21.94,0000 0000 0000 0000 000000
2017-02-17 08:54:39,0.42,9.73,0.00,20.54,23.95,28.02,14.70,52.67,1014.18,2038.99,1334.53,1453.91,1637.66,600.11,599.72,21.99,0000 0000 0000 0000 000000
2017-02-17 08:59:40,0.48,9.76,0.00,20.53,23.95,27.99,14.76,52.86,1014.18,2038.98,1331.93,1451.86,1635.36,600.11,599.68,22.04,0000 0000 0000 0000 000000
2017-02-17 09:04:42,0.50,9.78,0.00,20.52,23.95,27.98,14.67,52.98,1014.18,2038.98,1329.28,1449.69,1633.00,600.02,599.63,22.09,0000 0000 0000 0000 000000
2017-02-17 09:09:43,0.44,9.81,0.00,20.50,23.95,27.96,14.74,52.83,1014.18,2038.98,1326.73,1447.69,1630.69,600.21,599.92,22.14,0000 0000 0000 0000 000000
2017-02-17 09:14:44,0.54,9.83,0.00,20.49,23.95,27.99,14.73,53.02,1014.16,2038.98,1323.89,1445.35,1628.13,599.92,599.65,22.19,0000 0000 0000 0000 000000
2017-02-17 09:19:46,0.49,9.86,0.00,20.44,23.95,27.94,14.70,52.43,1014.52,2038.97,1321.17,1443.13,1625.58,600.10,599.95,22.24,0000 0000 0000 0000 000000
2017-02-17 09:24:47,0.45,9.88,0.00,20.41,23.95,27.93,14.68,52.69,1014.66,2038.95,1318.86,1441.11,1623.44,600.04,600.18,22.29,0000 0000 0000 0000 000000
2017-02-17 09:29:48,0.45,9.91,0.00,20.40,23.95,27.94,14.78,52.49,1014.77,2038.96,1316.45,1439.01,1621.24,600.21,600.33,22.35,0000 0000 0000 0000 000000
2017-02-17 09:34:49,0.47,9.93,0.00,20.39,23.95,27.88,14.72,52.68,1015.03,2038.94,1313.93,1436.99,1618.95,600.13,600.45,22.40,0000 0000 0000 0000 000000
2017-02-17 09:39:50,0.46,9.95,0.00,20.39,23.95,27.88,14.74,52.40,1015.13,2038.95,1311.42,1435.01,1616.61,600.06,600.58,22.45,0000 0000 0000 0000 000000
2017-02-17 09:44:52,0.44,9.97,0.00,20.38,23.95,27.89,14.74,52.36,1015.15,2038.96,1308.97,1433.11,1614.45,600.53,600.91,22.50,0000 0000 0000 0000 000000
2017-02-17 09:49:53,0.45,9.99,0.00,20.39,23.95,27.87,14.78,52.62,1015.16,2038.94,1306.56,1431.22,1612.25,600.31,600.80,22.55,0000 0000 0000 0000 000000
2017-02-17 09:54:54,0.42,10.02,0.00,20.36,23.94,27.88,14.76,52.60,1015.15,2038.90,1304.19,1429.39,1610.07,600.11,600.67,22.60,0000 0000 0000 0000 000000
2017-02-17 09:59:55,0.46,10.04,0.00,20.35,23.93,27.90,14.78,52.66,1015.18,2038.92,1301.74,1427.55,1607.97,600.20,600.77,22.65,0000 0000 0000 0000 000000
2017-02-17 10:04:56,0.47,10.06,0.00,20.37,23.92,27.89,14.76,52.63,1015.16,2038.97,1299.23,1425.66,1605.73,600.14,600.67,22.70,0000 0000 0000 0000 000000
2017-02-17 10:09:58,0.46,10.09,0.00,20.39,23.92,27.90,14.73,52.62,1015.17,2038.94,1296.71,1423.71,1603.47,600.09,600.62,22.75,0000 0000 0000 0000 000000
2017-02-17 10:14:59,0.48,10.11,0.00,20.40,23.92,27.89,14.78,52.69,1015.15,2038.95,1294.19,1421.76,1601.22,600.46,600.87,22.80,0000 0000 0000 0000 000000
2017-02-17 10:20:00,0.46,10.14,0.00,20.40,23.92,27.87,14.70,52.76,1015.02,2038.92,1291.59,1419.79,1599.02,600.00,600.37,22.85,0000 0000 0000 0000 000000
2017-02-17 10:25:02,0.48,10.16,0.00,20.40,23.92,27.87,14.74,52.76,1014.93,2038.95,1289.08,1417.87,1596.89,600.25,600.54,22.90,0000 0000 0000 0000 000000
2017-02-17 10:30:03,0.50,10.18,0.00,20.42,23.92,27.91,14.72,52.86,1015.12,2038.96,1286.48,1415.74,1594.48,600.06,600.46,22.95,0000 0000 0000 0000 000000
2017-02-17 10:35:04,0.46,10.21,0.00,20.42,23.92,27.89,14.74,52.89,1015.13,2038.96,1284.02,1413.81,1592.22,599.98,600.39,23.00,0000 0000 0000 0000 000000
2017-02-17 10:40:06,0.47,10.23,0.00,20.43,23.92,27.88,14.74,52.89,1014.80,2038.98,1281.48,1411.88,1589.95,600.11,600.36,23.05,0000 0000 0000 0000 000000
2017-02-17 10:45:07,0.48,10.26,0.00,20.46,23.92,27.89,14.72,52.99,1014.82,2038.97,1279.01,1409.91,1587.71,600.22,600.45,23.10,0000 0000 0000 0000 000000
2017-02-17 10:50:08,0.45,10.28,0.00,20.43,23.93,27.91,14.68,52.84,1015.15,2038.95,1276.53,1407.96,1585.39,599.94,600.33,23.15,0000 0000 0000 0000 000000
2017-02-17 10:55:10,0.46,10.30,0.00,20.45,23.94,27.97,14.74,52.94,1014.93,2038.91,1274.13,1406.15,1583.26,600.02,600.32,23.20,0000 0000 0000 0000 000000
2017-02-17 11:00:11,0.45,10.33,0.00,20.47,23.94,27.97,14.74,53.04,1014.76,2038.92,1271.71,1404.33,1581.07,600.07,600.22,23.25,0000 0000 0000 0000 000000
2017-02-17 11:05:12,0.47,10.35,0.00,20.46,23.95,27.96,14.76,52.94,1014.96,2038.95,1269.30,1402.50,1578.93,599.98,600.17,23.30,0000 0000 0000 0000 000000
2017-02-17 11:10:13,0.44,10.37,0.00,20.48,23.95,27.93,14.76,52.88,1014.84,2038.91,1266.93,1400.70,1576.87,600.31,600.41,23.35,0000 0000 0000 0000 000000
2017-02-17 11:15:14,0.43,10.39,0.00,20.51,23.95,27.95,14.69,52.92,1014.91,2038.80,1264.54,1398.89,1574.76,599.85,599.88,23.40,0000 0000 0000 0000 000000
2017-02-17 11:20:15,0.42,10.41,0.00,20.50,23.95,27.94,14.73,52.96,1014.70,2038.56,1262.22,1397.04,1572.60,600.04,600.07,23.45,0000 0000 0000 0000 000000
2017-02-17 11:25:17,0.43,10.44,0.00,20.50,23.95,27.95,14.69,52.73,1014.94,2038.46,1259.85,1395.24,1570.49,599.88,599.98,23.50,0000 0000 0000 0000 000000
2017-02-17 11:30:18,0.44,10.46,0.00,20.50,23.95,27.93,14.72,52.73,1015.09,2038.37,1257.49,1393.38,1568.34,600.15,600.34,23.55,0000 0000 0000 0000 000000
2017-02-17 11:35:20,0.47,10.48,0.00,20.50,23.95,27.97,14.69,52.68,1015.07,2038.38,1255.17,1391.58,1566.19,600.10,600.31,23.60,0000 0000 0000 0000 000000
2017-02-17 11:40:21,0.47,10.50,0.00,20.49,23.96,27.99,14.74,52.93,1014.81,2038.28,1252.75,1389.70,1564.04,600.07,600.05,23.65,0000 0000 0000 0000 000000
2017-02-17 11:45:22,0.45,10.53,0.00,20.49,23.97,27.94,14.60,52.96,1014.68,2038.11,1250.33,1387.78,1561.79,599.70,599.63,23.70,0000 0000 0000 0000 000000
2017-02-17 11:50:24,0.48,10.55,0.00,20.47,23.97,27.95,14.73,52.96,1014.31,2038.08,1247.90,1385.84,1559.51,600.00,599.89,23.75,0000 0000 0000 0000 000000
2017-02-17 11:55:25,0.53,10.58,0.00,20.48,23.97,28.00,14.74,53.02,1014.06,2038.16,1245.27,1383.75,1557.17,600.04,599.75,23.80,0000 0000 0000 0000 000000
2017-02-17 12:00:26,0.52,10.60,0.00,20.48,23.97,27.96,14.71,53.01,1013.96,2038.17,1242.60,1381.72,1554.86,600.14,599.68,23.85,0000 0000 0000 0000 000000
2017-02-17 12:05:28,0.72,10.64,0.00,20.47,23.97,28.01,14.71,53.71,1013.42,2038.23,1239.34,1379.08,1551.99,599.91,599.22,23.90,0000 0000 0000 0000 000000
2017-02-17 12:10:29,0.61,10.67,0.00,20.47,23.97,27.99,14.77,53.63,1013.54,2038.28,1236.18,1376.47,1549.06,600.13,599.65,23.95,0000 0000 0000 0000 000000
2017-02-17 12:15:30,0.57,10.70,0.00,20.42,23.97,27.95,14.73,53.42,1013.68,2038.33,1233.44,1374.10,1546.35,600.09,599.63,24.00,0000 0000 0000 0000 000000
2017-02-17 12:20:31,0.65,10.73,0.00,20.40,23.96,27.96,14.75,53.50,1013.65,2038.32,1230.43,1371.52,1543.48,600.14,599.71,24.05,0000 0000 0000 0000 000000
2017-02-17 12:25:32,0.59,10.76,0.00,20.37,23.95,27.93,14.72,53.39,1013.47,2038.50,1227.62,1369.17,1540.77,599.84,599.52,24.10,0000 0000 0000 0000 000000
2017-02-17 12:30:33,0.61,10.79,0.73,20.36,23.95,27.96,14.71,53.45,1013.73,2038.46,1224.63,1366.76,1538.01,599.75,599.46,24.15,0000 0000 0000 0000 000000
2017-02-17 12:35:35,0.57,10.82,1.00,20.33,23.95,27.97,14.71,53.41,1013.69,2038.72,1222.07,1364.67,1535.67,599.66,599.38,24.20,0000 0000 0000 0000 000000
2017-02-17 12:40:36,0.46,10.84,1.00,20.30,23.93,27.85,14.77,53.42,1013.68,2038.56,1219.52,1362.61,1533.42,599.98,599.77,24.25,0000 0000 0000 0000 000000
2017-02-17 12:45:37,0.54,10.87,1.00,20.27,23.92,27.85,14.72,53.43,1013.63,2038.69,1217.07,1360.62,1531.16,599.98,599.88,24.30,0000 0000 0000 0000 000000
2017-02-17 12:50:38,0.59,10.90,1.00,20.23,23.91,27.76,14.78,54.20,1013.22,2038.77,1214.34,1358.49,1528.69,600.37,599.99,24.35,0000 0000 0000 0000 000000
2017-02-17 12:55:40,0.62,10.93,1.00,20.19,23.90,27.76,14.76,53.73,1013.22,2038.91,1211.37,1356.11,1525.98,600.10,599.93,24.40,0000 0000 0000 0000 000000